Погода в Астане

Погода в Астане : погода сейчас, прогноз погоды и архив. Всё, что Вы хотите узнать о погоде в Астане!

Хотите узнать прогноз погоды Астана? Тогда Вам сюда: Погода Астана

Поиск расширенной информации на нашем сайте:

Другие новости

Новости СМИ2

Главная страница сайта

Новости сайта

03.07.2017

Напоминаем, что на нашем специализированном сайте Метеоцентр.Азия вы можете получить высокодетализированные автоматические прогнозы погоды по пунктам России, СНГ и мира в авиационном формате (включающие направление и скорость ветра, видимость, явления погоды, количество и форму облачности, нижнюю и верхнюю границу облачности).


Погода в Астане - сегодня

Время (UTC), дата Ветер
(°,м/с) 
Видим.   Явления Облачность Т
(°С)
Тd
(°С)
f(%) Тe
(°С)
Pmin
(гПа)
dP
(гПа)
Po
(мм)
O2
(г/м3)
Тmin Tmax R s Состояние
почвы
15 19.07.17 240 (ЮЗ) 10 км  гроза без осадков  10/8 1000 м кучево-дожд., верхняя 
[Cb cap|Ci]
+22.1 +11.8 52 +26  1014.3  0.9  731  270    +27.7       
18 19.07.17 тихо ()   н/о  {гроза}  ясно 
+17.7 +12.2 70 +22  1015  0.1  731  274    +27.7       
21 19.07.17 тихо ()   н/о    ясно 
+13.9 +13.1 95 +20  1015.3  -0.2  731  278           
00 20.07.17 тихо ()   10 км    ясно 
+13.3 +13 98 +19  1015.6  0.2  731  278           
03 20.07.17 270 (З) 10 км    ясно 
+21.3 +13.2 60 +28  1015  0.5  731  271           
06 20.07.17 250 (З) 10 км    9/8 1000 м кучево-дожд., верхняя 
[Cb cap|Ci fib]
+25.7 +12.5 44 +31  1013.5  -0.9  731  267  +12.8         
09 20.07.17 280 (З) 10 км  гроза без осадков  8/8 1000 м кучево-дожд. 
[Cb cap]
+25.3 +11.1 41 +29  1012.7  -0.8  730  267           
12 20.07.17 310 (СЗ) 10 км  {гроза}  9/4 1000 м кучево-дожд., средняя, верхняя 
[Cb cap|Ac lent|Ci fib]
+26.1 +10.7 38 +29  1012.4  -0.2  730  266           
15 20.07.17 300 (СЗ) 10 км    6/4 1000 м верхняя 
[Sc diur, vesp|Ci fib]
+23.1 +10.2 44 +25  1012.4  -0.4  730  269    +27.4       
18 20.07.17 тихо ()   н/о    ясно 
+17.9 +11.7 67 +22  1013.2  0.1  730  274    +27.4       
21 20.07.17 тихо ()   н/о    ясно 
+16.8 +13.3 80 +23  1012.9  -0.4  729  274           
00 21.07.17 тихо ()   10 км    8/0 
[Sc]
+16.5 +12.8 79 +22  1013.3  0.3  730  275           
03 21.07.17 210 (ЮЗ) 10 км    8/3 1000 м верхняя 
[Sc|Ci ing]
+21.9 +13.8 60 +29  1012.8  0.3  730  269           
06 21.07.17 280 (З) 10 км    10/4 1000 м верхняя 
[Cu med, cong|Ci]
+24 +14.1 54 +32  1012  -0.5  729  267  +14.6         
09 21.07.17 290 (З) 10 км    10/8 600 м кучево-дожд., верхняя 
[Cb cap|Ci ing]
+21.2 +13.6 62 +28  1012.7  0.3  730  270           
12 21.07.17 290 (З) 10 км  в посл. час ливневой дождь  9/4 1000 м средняя 
[Cu med, cong|Ac lent]
+22.5 +13 55 +29  1012.5  -0.1  730  269           
15 21.07.17 тихо ()   10 км    8/3 1000 м средняя, верхняя 
[Sc diur, vesp|Ac lent|Ci fib]
+21 +13.2 61 +27  1012.7  730  270    +26.5  0.0     
18 21.07.17 тихо ()   н/о    ясно 
+18.1 +13.8 76 +25  1013.3  0.2  730  273    +26.5  0.0     
21 21.07.17 тихо ()   н/о    ясно 
+14.4 +13.6 95 +21  1013.4  -0.4  729  276           
00 22.07.17 тихо ()   10 км    3/0 верхняя 
[Ci fib]
+13 +12.5 97 +18  1014.4  0.8  730  278           
03 22.07.17 тихо ()   10 км    3/0 верхняя 
[Ci fib]
+21.1 +15 68 +30  1013.9  0.6  731  270           
06 22.07.17 290 (З) 10 км    4/4 1500 м 
[Cu med, cong]
+25.2 +11 41 +28  1013.5  0.1  731  267  +12.8         
09 22.07.17 260 (З) 10 км    8/5 1500 м верхняя 
[Cu med, cong|Ci fib]
+26.7 +11.2 38 +30  1012.7  -0.6  730  266           
12 22.07.17 290 (З) 10 км    8/4 1000 м средняя 
[Sc diur, vesp|Ac lent]
+26.8 +10.1 35 +29  1012  -0.6  730  266           
15 22.07.17 020 (С) 10 км    10/4 1000 м средняя, верхняя 
[Sc diur, vesp|Ac As|Ci]
+24.2 +11.5 45 +28  1012.4  730  268    +28.8       
Время (UTC), дата Ветер
(°,м/с) 
Видим.   Явления Облачность Т
(°С)
Тd
(°С)
f(%) Тe
(°С)
Pmin
(гПа)
dP
(гПа)
Po
(мм)
O2
(г/м3)
Тmin Tmax R s Состояние
почвы

Для получения пояснительной информации подведите курсор к названию столбца.

ПОГОДА в Астане - архив

Всё, что Вы хотите узнать о погоде в Астане - удобно и подробно!

Выберите нужную дату (начиная с 1 января 2015* года) и нажмите кнопку "Найти".
Будут отображены архивные сводки погоды по пункту Астана, начиная с указанной даты.


Отображать данные в формате CSV (для использования в таблицах Excel)


Внимание! Наш архив погоды предназначен исключительно для личного некоммерческого использования в познавательных целях. Если Вам необходимы официальные справки о состоянии погоды (для производственных, юридических, коммерческих и т.п. целей), обращайтесь в органы Росгидромета.

*Примечание: данная дата относится к архиву по метеостанциям СССР (Россия, СНГ, Балтия).
Архив по метеостанциям Зарубежной Европы и Азии (кроме Китая) хранится 10 дней, по другим регионам земного шара (Китай, Африка, Америка, Австралия, Океания) - 1 день.

Астана - район местоположения метеостанции


Название, широта, долгота, высота метеостанции:
Астана (город) 51.1°ш. 71.4°д. 350 м над ур. моря [Казахстан]

Дополнительная информация

В oтличие oт бoльшинства пoгoдных сайтoв мы публикуем пoдрoбную метеoинфoрмацию в детальнoм прoфессиoнальнoм фoрмате.

Характеристики температуры и влажнoсти вoздуха измеряются на высoте 2 м в тени вдали oт зданий и деревьев.
Скoрoсть ветра измеряется на высoте 10 м (на урoвне рoста челoвека скoрoсть ветра ниже в 1.5-2 раза). Если метеoстанция нахoдится в гoрoде или в лесу, тo скoрoсть ветра занижена на 2-4 м/с пo сравнению с oткрытым местoм. Скoрoсть ветра над акватoриями крупных рек и oзёр, а также на вершинах хoлмoв на 2-5 м/с выше, чем в oбычных услoвиях.
Атмoсфернoе давление в разных тoчках местнoсти мoжет значительнo oтличаться oт давления на метеoстанции, в зависимoсти oт услoвий рельефа (при пoдъёме на 10 м давление пoнижается примернo на 1 мм рт.ст.).